Regional Weather Roundup
Issued by NWS Wakefield, VA

Home | Current Version | Previous Version | Graphics & Text | Print | Product List | Glossary On
Versions: 1 2 3 4 5 6 7 8 9 10 11 12 13 14 15 16 17 18 19 20 21 22 23 24 25 26 27
000
ASUS41 KAKQ 051116
RWRAKQ

REGIONAL WEATHER ROUNDUP
NATIONAL WEATHER SERVICE WAKEFIELD VA
600 AM EST MON DEC 05 2016

Note: "fair" indicates few or no clouds below 12,000 feet with no
significant weather and/or obstructions to visibility. * = Denotes
station may not report precipitation (e.g., rain,snow,etc.),
thunder or fog.

VAZ042-051-052>054-056-051200-
NORTHERN VIRGINIA

CITY           SKY/WX    TMP DP  RH WIND       PRES   REMARKS
WASH NATIONAL  CLOUDY    42  41  96 S8        30.01S
DULLES         CLOUDY    40  37  89 SW8       29.99S
FORT BELVOIR   CLOUDY    41  39  92 CALM      30.00S
QUANTICO       CLOUDY    42  39  89 SW7       30.02S
FREDERICKSBRG* CLOUDY    41  41 100 CALM      30.01R
STAFFORD*      CLOUDY    39  39 100 CALM      30.04S
WARRENTON      CLOUDY    41  36  84 SW6       29.99R
CULPEPER*      CLOUDY    41  40  96 CALM      30.01R
MANASSAS*      CLOUDY    39  39 100 CALM      30.00S
LEESBURG*      CLOUDY    41  41 100 MISG      30.00R
WINCHESTER     CLOUDY    36  36 100 CALM      29.96R
FRONT ROYAL*   PTSUNNY   37  36  93 CALM      29.94S
LURAY*         FAIR      39  39 100 SW7       29.95S
$$

VAZ048-049-060>072-079>083-051200-
CENTRAL AND SOUTH CENTRAL VIRGINIA

CITY           SKY/WX    TMP DP  RH WIND       PRES   REMARKS
RICHMOND       CLOUDY    41  39  93 S6        30.00F
CHESTERFIELD*  CLOUDY    41  27  56 SE6       30.01F
PETERSBURG*    CLOUDY    41  40  96 CALM      30.03S
HANOVER        CLOUDY    41  39  93 SE3       30.01F
TAPPAHANNOCK*  CLOUDY    42  42 100 CALM      30.02F
QUINTON*       CLOUDY    41  41 100 CALM      30.02S
CHARLOTTSVILLE CLOUDY    40  37  89 S5        29.98R
GORDONSVILLE*  CLOUDY    39  39  99 SW3       29.99R
ORANGE*          N/A     41  41 100 S9        30.01R
LOUISA*        CLOUDY    43  41  93 CALM      29.98S
BUMPASS*       CLOUDY    39  39 100 CALM      30.00S
FARMVILLE*     CLOUDY    40  40 100 CALM      29.98F FOG
CREWE*         CLOUDY    40  40 100 SE3       29.99F
FORT PICKETT*  CLOUDY   N/A N/A N/A CALM      30.00F
CHASE CITY*    CLOUDY    41  39  95 CALM      29.99F
CLARKSVILLE*   CLOUDY    41  41 100 CALM      30.00F
SOUTH HILL*    CLOUDY    40  40 100 CALM      30.06F
LAWRENCEVILLE* CLOUDY    41  40  97 CALM      30.01S
EMPORIA*       DRIZZLE   41  41 100 NW5       30.03R
$$

VAZ088>098-051200-
SOUTHEAST VIRGINIA

CITY           SKY/WX    TMP DP  RH WIND       PRES   REMARKS
NORFOLK        RAIN      47  45  93 N6        30.00F FOG
VIRGINIA BEACH RAIN      46  45  96 N9        29.98F FOG
NORFOLK NAVAL  LGT RAIN  47  45  93 N5        30.01F FOG
WEST POINT*    CLOUDY    42  42  99 CALM      30.05R
SALUDA*        CLOUDY    42  42 100 CALM      30.03R
NEWPORT NEWS   CLOUDY    44  43  96 N5        30.02S
LANGLEY AFB    CLOUDY    45  45 100 NW7       30.01R FOG
FORT EUSTIS    CLOUDY    44  42  93 CALM      29.99S
WILLIAMSBURG*  CLOUDY    45  45 100 CALM      30.02R
HR EXEC AP*    CLOUDY    45  43  93 N5        29.99S
FRANKLIN*      DRIZZLE   42  41  97 CALM      30.01S
US460-WAKEFLD  LGT RAIN  42  42 100 N3        30.02S FOG
$$

VAZ020-022-025-037-045-051200-
WEST CENTRAL AND SOUTHWEST VIRGINIA

CITY           SKY/WX    TMP DP  RH WIND       PRES   REMARKS
STAUNTON*      CLOUDY    37  36  94 CALM      29.97S
WAYNESBORO*    FAIR      37  36  96 CALM      29.96R
HOT SPRINGS VA SNOW      37  37 100 W23G29    29.90R VSB<1/4
LYNCHBURG      FOG       38  38 100 CALM      29.99S VSB 1
DANVILLE       CLOUDY    40  40 100 CALM      29.99F
SOUTH BOSTON*  CLOUDY    40  39  95 CALM      30.00F
MARTINSVILLE   CLOUDY    38  38  97 CALM      30.02R FOG
ROANOKE        CLOUDY    38  37  97 N8        29.99F
BLACKSBURG     CLOUDY    38  38 100 CALM      30.00S
DUBLIN*        CLOUDY    42  42 100 SW8       30.00R
MARION*        CLOUDY    44  43  97 W9        30.01R FOG
HILLSVILLE*    CLOUDY    43  43  99 CALM      29.97R
RICHLANDS*     CLOUDY    43  43 100 W5        30.00S FOG
WISE*          CLOUDY    43  43 100 CALM      30.02S FOG
ABINGDON*      CLOUDY    46  46 100 W3        30.01F FOG
$$

MDZ021>025-VAZ099-100-051200-
SOUTHERN MARYLAND AND THE DELMARVA PENINSULA

CITY           SKY/WX    TMP DP  RH WIND       PRES   REMARKS
PATUXENT RIVER CLOUDY    42  40  92 S6        30.00F
BAY BRIDGE APT CLOUDY    43  41  93 S7        30.00F
LEONARDTOWN    CLOUDY    41  39  93 CALM      30.01F
DOVER          CLOUDY    40  40 100 S5        30.01F
GEORGETOWN     CLOUDY    41  40  96 S6        30.03F FOG
EASTON         CLOUDY    43  41  93 SW5       30.05S
CAMBRIDGE      NOT AVBL
SALISBURY      LGT RAIN  41  41 100 CALM      30.03S FOG
OCEAN CITY     LGT RAIN  44  43  96 W3        30.03S FOG
WALLOPS ISLAND LGT RAIN  44  44 100 NW6       30.03S
ACCOMACK*      RAIN      44  44  97 NW6       30.03R
$$

NCZ012>017-030>032-051200-
NORTH CENTRAL AND EASTERN NORTH CAROLINA

CITY           SKY/WX    TMP DP  RH WIND       PRES   REMARKS
ROANOKE RAPIDS DRIZZLE   43  43 100 NE3       30.00F
RALEIGH        CLOUDY    43  41  93 N5        30.00F
ELIZABETH CITY RAIN      47  46  97 N13       29.95F FOG
AHOSKIE*       LGT RAIN  42  42  98 N5        29.99F
EDENTON*       RAIN      48  46  93 N10       29.97R
CURRITUCK*     RAIN      48  48 100 N8        29.97F
KILL DEVIL HLS DRIZZLE   57  57 100 SW7       29.91S
MANTEO         DRIZZLE   55  55 100 SW8       29.92S
CAPE HATTERAS  RAIN      65  64  97 SW10G18   29.91F FOG
TARBORO*       NOT AVBL
GOLDSBORO      LGT RAIN  45  45 100 N8        29.96S
WASHINGTON     RAIN      46  45  98 NW8       29.97R
GREENVILLE     LGT RAIN  45  45 100 N7        30.00S
NEW BERN       LGT RAIN  53  53 100 CALM      29.94R FOG
WILMINGTON     RAIN      56  56 100 W8        29.94S
$$

VAZ048-051200-
ELSEWHERE

CITY           SKY/WX    TMP DP  RH WIND       PRES   REMARKS
HARRISBURG PA  DRIZZLE   38  38 100 E3        29.97S
BALTIMORE      CLOUDY    40  40 100 SW5       30.00S
ANNAPOLIS      CLOUDY    43  40  89 S5        30.00F
ANDREWS AFB    CLOUDY    40  39  94 SW8       29.99S
PHILADELPHIA   CLOUDY    40  38  93 S10       30.01F FOG
HENDERSON NC   CLOUDY    38  38  97 CALM      30.01R
GREENSBORO     CLOUDY    42  41  96 CALM      29.97F
ROCKY MOUNT    LGT RAIN  43  43 100 N7        30.01R
$$

VAZ100-051200-
MARINE

STATION/POSITION TIME  TEMP    WIND        PRES    WAVE   SWELL
                       AIR SEA DIR/SP/G            HT/PER HT/PER
                 (UTC) (F)     (DEG/KT/KT) (MB)    (FT/S) (FT/S)
BRANDYWINE LGT   1048   42     230/ 12/ 14   N/A
CAPE MAY NJ      1048   44 48  220/  8/ 11 1016.3F
LEWES DE         1048   42 49  250/  3/  4 1016.6F
OCEAN-CITY-INLET 1042   45 50  290/  2/  4 1017.1F
WACHAPREAGUE VA  1048   45 47   CALM  /  2 1016.6R
THOMAS POINT MD  1100   43 48  210/ 15/ 17   N/A
GOOSES REEF MD   1100   44 50  210/ 10/ 12 1016.7    1/ 2
COVE POINT MD    1048   42     210/ 10/ 13 1016.6F
SOLOMONS ISLAND  1042   43 50  180/  7/  8   N/A
BISHOPS HEAD MD  1048   45 45  230/ 10/ 11 1016.9F
PINEY POINT MD   1048          200/  4/  5   N/A
POTOMAC MD       1100   44 50  260/  4/  6 1015.6    1
CAMBRIDGE MD     1048   42 47  180/  3/  6 1015.3F
LEWISETTA VA     1048   42 48  310/  2/  3 1016.5F
RAPPAHANNOCK LGT 1048          340/  3/  4 1017.0S
STINGRAY PT      1050   45     330/  8/  8 1016.9S
YORK RVR RNG VA  1048   45     330/  8/  9 1016.2R
YORKTOWN VA      1048   45 51  300/  7/  8 1016.5R
JAMESTOWN VA     1100   43 52  350/  6/  8   N/A     0
DOMINION TERM VA 1048   45      10/  2/  4 1015.7F
KIPTOPEKE VA     1042      52   30/  4/  6   N/A
CHES BAY BRIDGE  1048   47 54  350/ 10/ 11 1015.8F
CAPE HENRY VA    1048   47     330/  9/ 11   N/A
WILLOUBY STN VA  1048   45     350/  5/  7 1016.6F
S CRANEY ISL VA  1048   46     350/  6/  8 1015.8F
CAPE HENRY BUOY  1042      56                N/A     2/ 9
1ST LANDING BUOY 1100   47 53              1015.8    1/ 4
CAPE CHARLES BUO 1056      55                N/A     2/ 4
OFFSHORE WE BUOY 1051      56                N/A     3/ 8
64NM E OF VA BCH 1050   59 60  150/ 10/ 12 1013.0F   3/10   2/10
DUCK PIER NC     1048   55 54  280/  5/  8 1012.9R
44100 DUCK FRF   1005      56                N/A     3/ 4
OREGON INLET NC  1042   57 55  200/ 12/ 14 1013.0F
HATTERAS NC      1048   65 59  210/  9/ 13 1012.6F
DIAMOND SHLS NC  1050   69 74  210/ 23/ 27 1013.2F   5/ 5   2/ 8
CAPE LOOKOUT NC  1100   66     190/ 17/ 19 1011.5F
$$




USA.gov is the U.S. government's official web portal to all federal, state and local government web resources and services.